TimePST,TemperatureF,Dew PointF,Humidity,Sea Level PressureIn,VisibilityMPH,Wind Direction,Wind SpeedMPH,Gust SpeedMPH,PrecipitationIn,Events,Conditions,WindDirDegrees,DateUTC
12:55 AM,24.1,21.9,91,30.11,9.0,East,5.8,-,N/A,,Overcast,80,2012-12-29 08:55:00
1:55 AM,25.0,21.9,88,30.10,10.0,ENE,4.6,-,N/A,,Overcast,60,2012-12-29 09:55:00
2:55 AM,25.0,21.9,88,30.12,10.0,Calm,Calm,-,N/A,,Overcast,0,2012-12-29 10:55:00
4:55 AM,24.1,21.0,88,30.10,10.0,Calm,Calm,-,N/A,,Overcast,0,2012-12-29 12:55:00
5:55 AM,24.1,21.0,88,30.11,10.0,Calm,Calm,-,N/A,,Overcast,0,2012-12-29 13:55:00
6:55 AM,23.0,19.9,88,30.10,10.0,Calm,Calm,-,N/A,,Overcast,0,2012-12-29 14:55:00
7:55 AM,23.0,19.9,88,30.11,8.0,Calm,Calm,-,N/A,,Overcast,0,2012-12-29 15:55:00
8:55 AM,25.0,21.0,85,30.12,5.0,Calm,Calm,-,N/A,,Overcast,0,2012-12-29 16:55:00
9:55 AM,26.1,21.9,84,30.12,7.0,Calm,Calm,-,N/A,,Overcast,0,2012-12-29 17:55:00
10:46 AM,28.4,23.0,80,30.04,2.5,Calm,Calm,-,0.00,Snow,Light Snow,0,2012-12-29 18:46:00
10:55 AM,28.0,23.0,81,30.12,3.0,Calm,Calm,-,0.00,Snow,Light Snow,0,2012-12-29 18:55:00
11:55 AM,30.0,24.1,79,30.08,7.0,Calm,Calm,-,0.00,,Overcast,0,2012-12-29 19:55:00
12:55 PM,28.9,25.0,85,30.06,9.0,Calm,Calm,-,0.00,,Overcast,0,2012-12-29 20:55:00
1:55 PM,28.9,25.0,85,30.06,10.0,Calm,Calm,-,N/A,,Overcast,0,2012-12-29 21:55:00
2:55 PM,30.0,25.0,82,30.05,8.0,Calm,Calm,-,0.00,Snow,Light Snow,0,2012-12-29 22:55:00
3:17 PM,30.2,26.6,86,29.98,10.0,Calm,Calm,-,0.00,,Overcast,0,2012-12-29 23:17:00
3:55 PM,28.9,25.0,85,30.06,10.0,Calm,Calm,-,0.00,,Overcast,0,2012-12-29 23:55:00
4:55 PM,28.9,25.0,85,30.03,10.0,Calm,Calm,-,N/A,,Overcast,0,2012-12-30 00:55:00
5:55 PM,28.0,26.1,92,30.05,10.0,Calm,Calm,-,N/A,,Overcast,0,2012-12-30 01:55:00
6:02 PM,28.4,24.8,86,29.98,10.0,Calm,Calm,-,N/A,,Overcast,0,2012-12-30 02:02:00
6:55 PM,28.0,24.1,85,30.07,10.0,Calm,Calm,-,N/A,,Overcast,0,2012-12-30 02:55:00
7:55 PM,27.0,24.1,89,30.07,10.0,WSW,3.5,-,N/A,,Overcast,250,2012-12-30 03:55:00
8:55 PM,26.1,23.0,88,30.07,10.0,West,4.6,-,N/A,,Overcast,270,2012-12-30 04:55:00
9:55 PM,26.1,23.0,88,30.08,10.0,Calm,Calm,-,N/A,,Unknown,0,2012-12-30 05:55:00
10:55 PM,25.0,23.0,92,30.07,9.0,Calm,Calm,-,0.00,,Overcast,0,2012-12-30 06:55:00
11:29 PM,24.8,23.0,93,30.00,2.0,Calm,Calm,-,0.00,Snow,Light Snow,0,2012-12-30 07:29:00
11:43 PM,24.8,23.0,93,30.00,3.0,Calm,Calm,-,0.00,Snow,Light Snow,0,2012-12-30 07:43:00
11:55 PM,25.0,23.0,92,30.07,2.0,Calm,Calm,-,0.00,Snow,Light Snow,0,2012-12-30 07:55:00